Terminal Aerodrome Forecast
Issued by NWS Memphis, TN

Home | Current Version | Previous Version | Text Only | Print | Product List | Glossary On
Versions: 1 2 3 4 5 6 7 8 9 10 11 12 13 14
446
FTUS44 KMEG 271133
TAFMKL
TAF
KMKL 271133Z 2712/2812 VRB03KT P6SM FEW060 SCT150
     FM271400 VRB03KT P6SM SCT035
     FM271800 16005KT P6SM VCTS BKN040CB
      TEMPO 2720/2724 4SM -TSRA OVC025CB
     FM280200 VRB03KT 6SM BR VCTS OVC020CB=

USA.gov is the U.S. government's official web portal to all federal, state and local government web resources and services.